"Pseudo-MPEC" for C4WH682

Created 2021 Feb 24 23:07:08 UT using Find_Orb

Click here for an explanation of pseudo-MPECs

 
 Astrometry: 
     C4WH682  C2021 02 11.44305413 40 01.72 -17 35 31.0    ~2BBMx19.74GVNEOCPG96
     C4WH682  C2021 02 11.44821013 40 01.35 -17 35 26.8    ~2BBMx19.47GVNEOCPG96
     C4WH682  C2021 02 11.45335613 40 01.02 -17 35 22.8    ~2BBMx19.49GVNEOCPG96
     C4WH682  C2021 02 11.45849713 40 00.65 -17 35 18.6    ~2BBMx19.77GVNEOCPG96
     C4WH682  C2021 02 11.51399513 39 56.87 -17 34 36.0    ~2BCqx20.08GVNEOCPI52
     C4WH682  C2021 02 11.51664513 39 56.69 -17 34 34.6    ~2BCqx19.67GVNEOCPI52
     C4WH682  C2021 02 11.51952413 39 56.53 -17 34 32.1    ~2BCqx20.06GVNEOCPI52
     C4WH682  C2021 02 11.52239013 39 56.29 -17 34 29.4    ~2BCqx19.98GVNEOCPI52
     C4WH682  C2021 02 11ilqk_9Ik+ngfIpRVBqveGB)/.g\5+K[#@e14)iS9,/5W_^,wA;+.F51
     C4WH682  C2021 02 11wtn#Vq?vg_bisk2MD%4-:Elo]yl%nQgFL[I(,BXN[@q.f*6dcJr$F51
     C4WH682  C2021 02 11Isa=?ffp-2vC5X)17WG1OUw3kbvo4sRMZJl6=am*kL4V=k#Nt3-$F51
     C4WH682  C2021 02 11h*NV^!.2[XX5nOvJAstrometryC';oor2:O:5b@redacted;BA.IF51
     C4WH682 1C2021 02 11deJMQ_+/tT_J$\+tQF=;uWP^xL%`SN%rxRI772ekK5J-Ax^uDU6?Q62
     C4WH682 1C2021 02 113@#1G(q0vLb(uy@ade3T5tu33JWh;Q![T2\7^6!4bd=7c]y(Hf\8Q62
     C4WH682 KC2021 02 12.35191313 39 00.17 -17 23 41.0    ~2C97x19.47GVNEOCPG96
     C4WH682 KC2021 02 12.35641513 38 59.92 -17 23 38.0    ~2C97x19.57GVNEOCPG96
     C4WH682 KC2021 02 12.36081213 38 59.55 -17 23 34.0    ~2C97x19.24GVNEOCPG96
     C4WH682 1C2021 02 13.14817 13 38 04.88 -17 13 07.8    ~2D47x20.6 VVNEOCP033
     C4WH682 1C2021 02 13.14915 13 38 04.81 -17 13 07.0    ~2D47x20.8 VVNEOCP033
     C4WH682 1C2021 02 13.15013 13 38 04.73 -17 13 05.7    ~2D47x21.1 VVNEOCP033
     C4WH682 1C2021 02 13.15117 13 38 04.65 -17 13 05.9    ~2D47x20.7 VVNEOCP033
     C4WH682  C2021 02 13.48526213 37 41.13 -17 08 36.5    ~2DCMx20.31GVNEOCPI52
     C4WH682  C2021 02 13.48793813 37 40.95 -17 08 33.4    ~2DCMx19.81GVNEOCPI52
     C4WH682  C2021 02 13.49061313 37 40.78 -17 08 31.4    ~2DCMx20.03GVNEOCPI52
     C4WH682  C2021 02 13.49328913 37 40.60 -17 08 28.8    ~2DCMx19.77GVNEOCPI52
     C4WH682 bC2021 02 14`1%s[7bvh=2v*ngh+iVm-s_J0^R3J4%dE*^'u#c=5:G^[ii$F61sL01
     C4WH682 bC2021 02 14u\*3hq]#vHZ`]V:;sW*3YhIH1MHH9Bwu1cQH@MJCa0Z=Ju7\$;n'L01
     C4WH682 bC2021 02 14=ZU@(n%Cvj`M9'Tc$;N^3x4$4:\ObdGB?A$g]*dYNJ,gQ`Q/U%nhL01
     C4WH682 9C2021 02 14W(lFvOO89v[2=_SC=3rg?9sYD(5#PW[2J'.SVGF-\X$ueYs(lEIfG40
     C4WH682 9C2021 02 14^BE)%4,UlABp*I3Qo@g'DclW\NJ[Q6?N5HS$/bpP*@-5i@@8`bs^G40
     C4WH682 |C2021 02 14K?paG@Bx0;LyY#MBsW9d;\*6NDxG]#fS3s:f]U8\Mr`n3Xt'vj='807
     C4WH682 |C2021 02 14l%Xmb[Z;SGhmgKZ.PRn*[tb9tDryeb7y#j!l7hqn%D.MN./E]q^!807
     C4WH682 |C2021 02 14wXFI1isnhQ8Cw*fnxhtvw!$+0IB\-D3?D]QL$nnUalRkXGCu?wvw807
     C4WH682  C2021 02 15.43239813 35 20.20 -16 41 44.3    ~2FBM 19.94GVNEOCPI52
     C4WH682  C2021 02 15.43859513 35 19.75 -16 41 39.9    ~2FBM 19.93GVNEOCPI52
     C4WH682  C2021 02 15.44479513 35 19.27 -16 41 34.4    ~2FBM 20.25GVNEOCPI52
     C4WH682  C2021 02 15.45100313 35 18.87 -16 41 27.8    ~2FBM 19.70GVNEOCPI52
     C4WH682 KC2021 02 17.37652013 32 52.82 -16 13 45.0    ~2H9q 19.23GVNEOCPI52
     C4WH682 KC2021 02 17.38426413 32 52.21 -16 13 38.4    ~2H9q 19.36GVNEOCPI52
     C4WH682 KC2021 02 17.38990813 32 51.75 -16 13 33.5    ~2H9q 19.37GVNEOCPI52
     C4WH682 KC2021 02 18.50046913 31 24.38 -15 57 02.2    ~2ICb 19.36GVNEOCPI52
     C4WH682 KC2021 02 18.50949613 31 23.57 -15 56 53.4    ~2ICb 19.68GVNEOCPI52
     C4WH682 KC2021 02 18.50953 13 31 23.62 -15 56 54.2    ~2ID7 19.2 RoNEOCP691
     C4WH682 KC2021 02 18.51684 13 31 23.04 -15 56 47.0    ~2ID7 19.4 RoNEOCP691
     C4WH682 KC2021 02 18.52413 13 31 22.43 -15 56 41.0    ~2ID7 19.1 RoNEOCP691
     C4WH682 KC2021 02 18]aG%C.#V(G93H?7phG1ZyVlyFOrxLp53qclickn0Yrfa?NAyflA3E94
     C4WH682 KC2021 02 18#UfZGA3Hp,FvV[c'Os`G`A@*sp.;]2p$lrE%@oe@lu!/*]=,Cs'=E94
     C4WH682 KC2021 02 18#C6tR+1d50tZin*U4PPi_-sBJY?C`6*'N\2`4u0b0yVn.DD_3]laE94
     C4WH682 KC2021 02 19.39176013 30 12.83 -15 43 29.0    ~2JA7 19.34GVNEOCPI52
     C4WH682 KC2021 02 19.39836913 30 12.30 -15 43 22.6    ~2JA7 19.19GVNEOCPI52
     C4WH682 KC2021 02 19.40260213 30 11.98 -15 43 18.9    ~2JA7 19.36GVNEOCPI52
     C4WH682  C2021 02 20.42451313 28 48.10 -15 27 28.3    ~2KB7 19.33GVNEOCPI52
     C4WH682  C2021 02 20.43088713 28 47.57 -15 27 22.6    ~2KB7 20.09GVNEOCPI52
     C4WH682  C2021 02 20.44371413 28 46.50 -15 27 10.5    ~2KB7 19.45GVNEOCPI52
     C4WH682  C2021 02 20.44838813 28 46.11 -15 27 05.8    ~2KB7 19.37GVNEOCPI52
     C4WH682 HC2021 02 21.37083013 27 28.95 -15 12 30.4    ~2L9b       VNEOCPI52
     C4WH682 HC2021 02 21.37640213 27 28.54 -15 12 24.7    ~2L9b       VNEOCPI52
     C4WH682 HC2021 02 21.38330113 27 27.88 -15 12 17.9    ~2L9b 20.41GVNEOCPI52
     C4WH682 HC2021 02 21.38887213 27 27.44 -15 12 12.8    ~2L9b       VNEOCPI52
     C4WH682 KC2021 02 21ZpthereS9[j9?qhU)(UW?ZA75M5YfI=2dQ(^*u?th8k0mO8HGpg'N51
     C4WH682 KC2021 02 217`rMg.`S1W?u.GY9vSgdk3foru9b3a/])jui=VKbc\@\W()jA%w/N51
     C4WH682 KC2021 02 21CCv\^,CGiLkdo.@%Y)Bo#$L_aq[@HDdk@\M$hK%XQpvG%=^ITWMZN51
     C4WH682 KC2021 02 22i+Q/TuME;0M?xxx0Oo-Pt$W2XZ@iaU_P:7:n2AnNQAG*sF:o!SCYK83
     C4WH682 KC2021 02 22dUkxPZ_+@jEW^nC%bK1]M;0M/2B1?eD]t6[Jpu/j?/!WWE\spmVCK83
     C4WH682 KC2021 02 22.fprRl)r1MU,=k04ft$_]:%R3OFCM.cw;jcg!kCa.hLvTFUm]5cwK83
     C4WH682 KC2021 02 22:;di;apJ$n*s^Ha9mexplanation^U!L'RZ'-MdB6;6Q%Ym@PqxDK83
     C4WH682  C2021 02 22.46953013 25 54.97 -14 54 45.5    ~2MC7 20.12GVNEOCPI52
     C4WH682  C2021 02 22.47540513 25 54.44 -14 54 39.6    ~2MC7       VNEOCPI52
     C4WH682  C2021 02 22.48128413 25 53.91 -14 54 34.0    ~2MC7 20.38GVNEOCPI52
     C4WH682 KC2021 02 23.06735713 25 03.08 -14 44 57.1    ~2N2b 19.2 GVNEOCPI93
     C4WH682 KC2021 02 23.08263813 25 01.67 -14 44 43.0    ~2N2b 19.6 GVNEOCPI93
     C4WH682 KC2021 02 23.38647713 24 35.10 -14 39 39.0    ~2NA7 19.52GVNEOCPI52
     C4WH682 KC2021 02 23.39032413 24 34.76 -14 39 35.9    ~2NA7 18.96GVNEOCPI52
     C4WH682 KC2021 02 23.39416913 24 34.46 -14 39 33.4    ~2NA7       VNEOCPI52
     C4WH682 KC2021 02 23.39801713 24 34.09 -14 39 27.7    ~2NA7 19.30GVNEOCPI52
     C4WH682  C2021 02 24.45350613 23 00.32 -14 21 44.3    ~2OBMx19.72GVNEOCPI52
     C4WH682  C2021 02 24.45538113 23 00.09 -14 21 42.7    ~2OBMx19.07GVNEOCPI52
     C4WH682  C2021 02 24.45912413 22 59.78 -14 21 38.7    ~2OBMx19.17GVNEOCPI52

Station data:
(033) Karl Schwarzschild Observatory, Tautenburg  (N50.980140 E11.711240)
   Germany. 1.3-m Schmidt.
(691) Steward Observatory, Kitt Peak - Spacewatch  (N31.962174 W111.600327)
   US/Arizona.  Observer J. V. Scotti. 0.9-m f/3 reflector + CCD.
(807) Cerro Tololo Observatory, La Serena  (S30.169136 W70.805900)  Chile.
(E94) Gisborne (Possum Observatory)  (S38.629922 E177.883310)  New Zealand.
(F51) Pan-STARRS 1, Haleakala  (N20.707235 W156.255910)  US/Hawaii.
   Observers N. Primak, A. Schultz, S. Watters, J. Thiel, T. Goggia. Measurer
   PS1 Science Consortium. 1.8-m Ritchey-Chrétien + CCD.
(G40) Slooh.com Canary Islands Observatory  (N28.299720 W16.508260)  Canary
   Islands (Spain).  Observers G. Gašparović, Y. Chen. 0.43-m f/6.8 Corrected
   Dall-Kirkham + CCD.
(G96) Mt. Lemmon Survey  (N32.442754 W110.788720)  US/Arizona.  Observers T.
   A. Pruyne, B. M. Africano, E. J. Christensen, G. A. Farneth, D. C. Fuls,
   A. R. Gibbs, A. D. Grauer, H. Gröller, J. A. Johnson, R. A. Kowalski, S.
   M. Larson, G. J. Leonard, D. Rankin, R. L. Seaman, F. C. Shelly. 1.5-m
   reflector + 10K CCD.
(I52) Steward Observatory, Mt. Lemmon Station  (N32.442547 W110.788920)
   US/Arizona.  Observers T. A. Pruyne, B. M. Africano, E. J. Christensen, G.
   A. Farneth, D. C. Fuls, A. R. Gibbs, A. D. Grauer, H. Gröller, J. A.
   Johnson, R. A. Kowalski, S. M. Larson, G. J. Leonard, D. Rankin, R. L.
   Seaman, F. C. Shelly. 1.0-m reflector + CCD.
(I93) St Pardon de Conques  (N44.558710 W0.203000)  France.  Observer F.
   Losse. 0.40-m f/3.7 reflector + CCD.
(K83) Beppe Forti Astronomical Observatory, Montelupo  (N43.755333
   E11.043170)  Italy.
(L01) Višnjan Observatory, Tičan  (N45.290900 E13.749300)  Croatia.
   Observers K. Korlević, E. Pettarin. Measurer E. Pettarin. 1.0-m f/2.9
   reflector + CCD.
(N51) GROWTH India Telescope, IAO, Hanle  (N32.779244 E78.964610)  India.
(Q62) iTelescope Observatory, Siding Spring  (S31.273289 E149.064420)
   Australia/NSW. 0.50-m f/6.8 astrograph + CCD + focal reducer, 0.70-m f/6.6
   astrograph + CCD.

Orbital elements:  C4WH682
   Perihelion 2020 Nov 29.591667 TT = 14:12:00 (JD 2459183.091667)
Epoch 2021 Feb 23.0 TT = JDT 2459268.5                        AutoNEOCP
M   0.08533280                      (J2000 ecliptic)
n   0.00099911     Peri.  334.77044
a  99.0966279      Node   186.89953
e   0.9651146      Incl.  142.82903
P 986.48           H   14.0     G   0.15   q 3.45701941  Q 194.736236
45 of 78 observations 2021 Feb. 14-23; mean residual 0".40
Residuals in arcseconds: 
210211 G96( .42+  .45+)   210214 L01( .31-  .15+)   210220 I52  .14-  .20-    
210211 G96( .14+  .67+)   210214 L01( .09-  .91+)   210220 I52  .03-  .15-    
210211 G96( .43+  .70+)   210214 G40( .55-  .21-)   210220 I52  .02+  .15+    
210211 G96( .14+  .93+)   210214 G40( .24-  .03-)   210221 I52  .09+  .35-    
210211 I52( .15+  .60+)   210214 807  .04+  .58-    210221 I52  1.1+  .02+    
210211 I52( .16+  .05-)   210214 807  .26+  .06+    210221 I52  .04+  .22+    
210211 I52( .68+  .22+)   210214 807  .09+  .29+    210221 I52  .58+  .01-    
210211 I52( .04+  .69+)   210215 I52  .49-  .36+    210221 N51  .12-  .59+    
210211 F51( .81+  .74+)   210215 I52  .26-  .47-    210221 N51  .19-  .54+    
210211 F51( .80+  .57+)   210215 I52  .45-  .21-    210221 N51  .14-  .51+    
210211 F51( .80+  .73+)   210215 I52  .51+  1.1+    210222 K83  .11-  .09+    
210211 F51( .71+  .59+)   210217 I52  .25+  .25+    210222 K83  .00   .18+    
